When you browse on this site, cookies collect data to enhance your experience and personalize the content and advertising you see.
Visit our Privacy Policy to learn more. By continuing to use the site, you agree to this use of cookies and data.
  • In United Kingdom
  • List of Countries
  • For 7 days
  • Water Temperature
  • Weather Map
  • Weather Widgets
  • user-avatar
    Login

    Hourly Weather Focsani

    Today, 19 September, Thursday

    Time Temperature Precipitation Wind Pressure Humidity
    00:00 +10°C° 0 mm 2 mps 761 mmHg 54%
    01:00 +9°C° 0 mm 2 mps 761 mmHg 57%
    02:00 +10°C° 0 mm 1 mps 762 mmHg 61%
    03:00 +9°C° 0 mm 1 mps 762 mmHg 61%
    04:00 +9°C° 0 mm 1 mps 762 mmHg 62%
    05:00 +9°C° 0 mm 1 mps 762 mmHg 63%
    06:00 +11°C° 0 mm 1 mps 762 mmHg 57%
    07:00 +13°C° 0 mm 1 mps 762 mmHg 51%
    08:00 +14°C° 0 mm 1 mps 762 mmHg 45%
    09:00 +16°C° 0 mm 1 mps 762 mmHg 41%
    10:00 +18°C° 0 mm 2 mps 761 mmHg 36%
    11:00 +19°C° 0 mm 2 mps 761 mmHg 32%
    12:00 +20°C° 0 mm 3 mps 761 mmHg 32%
    13:00 +21°C° 0 mm 4 mps 760 mmHg 32%
    14:00 +21°C° 0 mm 5 mps 760 mmHg 32%
    15:00 +21°C° 0 mm 5 mps 759 mmHg 33%
    16:00 +21°C° 0 mm 4 mps 759 mmHg 34%
    17:00 +21°C° 0 mm 4 mps 759 mmHg 34%
    18:00 +19°C° 0 mm 4 mps 759 mmHg 41%
    19:00 +17°C° 0 mm 3 mps 759 mmHg 48%
    20:00 +14°C° 0 mm 3 mps 760 mmHg 54%
    21:00 +13°C° 0.1 mm 3 mps 760 mmHg 58%
    22:00 +12°C° 0.1 mm 3 mps 760 mmHg 61%
    23:00 +13°C° 0.1 mm 2 mps 760 mmHg 65%

    Tomorrow, 20 September, Friday

    Time Temperature Precipitation Wind Pressure Humidity
    00:00 +11°C° 0 mm 3 mps 760 mmHg 65%
    01:00 +11°C° 0 mm 4 mps 760 mmHg 66%
    02:00 +10°C° 0 mm 6 mps 760 mmHg 66%
    03:00 +9°C° 0 mm 5 mps 760 mmHg 70%
    04:00 +8°C° 0 mm 4 mps 761 mmHg 75%
    05:00 +9°C° 0 mm 3 mps 761 mmHg 79%
    06:00 +10°C° 0 mm 3 mps 761 mmHg 73%
    07:00 +11°C° 0 mm 3 mps 761 mmHg 67%
    08:00 +12°C° 0 mm 3 mps 761 mmHg 61%
    09:00 +14°C° 0 mm 3 mps 761 mmHg 52%
    10:00 +17°C° 0 mm 4 mps 761 mmHg 43%
    11:00 +18°C° 0 mm 4 mps 761 mmHg 35%
    12:00 +19°C° 0 mm 5 mps 761 mmHg 34%
    13:00 +19°C° 0 mm 5 mps 760 mmHg 33%
    14:00 +19°C° 0 mm 5 mps 760 mmHg 32%
    15:00 +17°C° 0 mm 5 mps 760 mmHg 34%
    16:00 +17°C° 0 mm 5 mps 760 mmHg 36%
    17:00 +16°C° 0 mm 5 mps 760 mmHg 38%
    18:00 +15°C° 0 mm 5 mps 761 mmHg 44%
    19:00 +13°C° 0 mm 4 mps 762 mmHg 49%
    20:00 +11°C° 0 mm 3 mps 762 mmHg 55%
    21:00 +11°C° 0 mm 3 mps 763 mmHg 55%
    22:00 +10°C° 0 mm 3 mps 763 mmHg 55%
    23:00 +9°C° 0 mm 3 mps 764 mmHg 55%

    Day after tomorrow, 21 September, Saturday

    Time Temperature Precipitation Wind Pressure Humidity
    00:00 +9°C° 0 mm 3 mps 764 mmHg 55%
    01:00 +9°C° 0 mm 3 mps 764 mmHg 55%
    02:00 +8°C° 0 mm 3 mps 764 mmHg 55%
    03:00 +8°C° 0 mm 2 mps 764 mmHg 57%
    04:00 +8°C° 0 mm 2 mps 764 mmHg 59%
    05:00 +7°C° 0 mm 2 mps 765 mmHg 61%
    06:00 +9°C° 0 mm 2 mps 765 mmHg 56%
    07:00 +11°C° 0 mm 1 mps 765 mmHg 50%
    08:00 +13°C° 0 mm 1 mps 765 mmHg 44%
    09:00 +15°C° 0 mm 1 mps 765 mmHg 39%
    10:00 +17°C° 0 mm 2 mps 765 mmHg 33%
    11:00 +19°C° 0 mm 2 mps 765 mmHg 28%
    12:00 +20°C° 0 mm 2 mps 764 mmHg 26%
    13:00 +20°C° 0 mm 2 mps 764 mmHg 24%
    14:00 +22°C° 0 mm 1 mps 763 mmHg 22%
    15:00 +21°C° 0 mm 2 mps 763 mmHg 23%
    16:00 +21°C° 0 mm 2 mps 762 mmHg 23%
    17:00 +20°C° 0 mm 2 mps 762 mmHg 24%
    18:00 +18°C° 0 mm 2 mps 762 mmHg 29%
    19:00 +16°C° 0 mm 2 mps 763 mmHg 33%
    20:00 +14°C° 0 mm 2 mps 763 mmHg 37%
    21:00 +13°C° 0 mm 2 mps 763 mmHg 38%
    22:00 +12°C° 0 mm 2 mps 763 mmHg 39%
    23:00 +12°C° 0 mm 2 mps 763 mmHg 40%

    22 September, Sunday

    Time Temperature Precipitation Wind Pressure Humidity
    00:00 +10°C° 0 mm 2 mps 763 mmHg 41%
    01:00 +10°C° 0 mm 2 mps 763 mmHg 42%
    02:00 +9°C° 0 mm 2 mps 763 mmHg 43%
    03:00 +10°C° 0 mm 1 mps 762 mmHg 44%
    04:00 +10°C° 0 mm 1 mps 762 mmHg 45%
    05:00 +9°C° 0 mm 1 mps 762 mmHg 45%
    06:00 +11°C° 0 mm 1 mps 762 mmHg 41%
    07:00 +13°C° 0 mm 1 mps 762 mmHg 38%
    08:00 +14°C° 0 mm 0 mps 761 mmHg 34%
    09:00 +18°C° 0 mm 1 mps 761 mmHg 30%
    10:00 +20°C° 0 mm 2 mps 761 mmHg 26%
    11:00 +22°C° 0 mm 3 mps 761 mmHg 22%
    12:00 +24°C° 0 mm 3 mps 760 mmHg 21%
    13:00 +26°C° 0 mm 3 mps 760 mmHg 19%
    14:00 +27°C° 0 mm 4 mps 759 mmHg 18%
    15:00 +27°C° 0 mm 3 mps 759 mmHg 19%
    16:00 +26°C° 0 mm 3 mps 758 mmHg 20%
    17:00 +26°C° 0 mm 3 mps 758 mmHg 20%
    18:00 +22°C° 0 mm 3 mps 758 mmHg 24%
    19:00 +20°C° 0 mm 2 mps 758 mmHg 28%
    20:00 +17°C° 0 mm 2 mps 759 mmHg 31%
    21:00 +16°C° 0 mm 2 mps 759 mmHg 35%
    22:00 +15°C° 0 mm 2 mps 759 mmHg 38%
    23:00 +14°C° 0 mm 2 mps 759 mmHg 42%

    23 September, Monday

    Time Temperature Precipitation Wind Pressure Humidity
    00:00 +14°C° 0 mm 2 mps 759 mmHg 45%
    01:00 +13°C° 0 mm 2 mps 759 mmHg 49%
    02:00 +12°C° 0 mm 2 mps 759 mmHg 52%
    03:00 +12°C° 0 mm 2 mps 759 mmHg 54%
    04:00 +12°C° 0 mm 2 mps 758 mmHg 55%
    05:00 +11°C° 0 mm 3 mps 758 mmHg 57%
    06:00 +12°C° 0 mm 3 mps 758 mmHg 53%
    07:00 +14°C° 0 mm 4 mps 758 mmHg 49%
    08:00 +17°C° 0 mm 4 mps 757 mmHg 45%
    09:00 +19°C° 0 mm 5 mps 757 mmHg 41%
    10:00 +21°C° 0 mm 5 mps 757 mmHg 37%
    11:00 +23°C° 0 mm 6 mps 757 mmHg 32%
    12:00 +24°C° 0 mm 6 mps 756 mmHg 30%
    13:00 +26°C° 0 mm 6 mps 755 mmHg 28%
    14:00 +28°C° 0 mm 7 mps 754 mmHg 26%
    15:00 +26°C° 0 mm 5 mps 754 mmHg 30%
    16:00 +25°C° 0 mm 4 mps 754 mmHg 33%
    17:00 +24°C° 0 mm 3 mps 753 mmHg 37%
    18:00 +22°C° 0 mm 3 mps 753 mmHg 42%
    19:00 +21°C° 0 mm 3 mps 753 mmHg 46%
    20:00 +20°C° 0 mm 3 mps 753 mmHg 50%
    21:00 +19°C° 0 mm 3 mps 753 mmHg 53%
    22:00 +19°C° 0 mm 4 mps 752 mmHg 57%
    23:00 +19°C° 0 mm 4 mps 752 mmHg 60%

    24 September, Tuesday

    Time Temperature Precipitation Wind Pressure Humidity
    00:00 +18°C° 0 mm 3 mps 752 mmHg 63%
    01:00 +17°C° 0 mm 3 mps 752 mmHg 66%
    02:00 +16°C° 0 mm 2 mps 751 mmHg 69%
    03:00 +17°C° 0 mm 2 mps 751 mmHg 66%
    04:00 +18°C° 0 mm 1 mps 751 mmHg 63%
    05:00 +18°C° 0 mm 1 mps 751 mmHg 61%
    06:00 +18°C° 0.6 mm 1 mps 751 mmHg 67%
    07:00 +18°C° 0.6 mm 1 mps 751 mmHg 73%
    08:00 +18°C° 0.6 mm 1 mps 751 mmHg 79%
    09:00 +19°C° 0.1 mm 1 mps 751 mmHg 72%
    10:00 +21°C° 0.1 mm 1 mps 751 mmHg 66%
    11:00 +23°C° 0.1 mm 1 mps 751 mmHg 59%
    12:00 +23°C° 0.1 mm 2 mps 751 mmHg 58%
    13:00 +23°C° 0.1 mm 2 mps 751 mmHg 57%
    14:00 +23°C° 0.1 mm 2 mps 751 mmHg 56%
    15:00 +22°C° 0.1 mm 3 mps 751 mmHg 56%
    16:00 +22°C° 0.1 mm 3 mps 751 mmHg 57%
    17:00 +21°C° 0.1 mm 3 mps 751 mmHg 58%
    18:00 +20°C° 0 mm 3 mps 751 mmHg 63%
    19:00 +19°C° 0 mm 3 mps 752 mmHg 67%
    20:00 +18°C° 0 mm 3 mps 752 mmHg 72%
    21:00 +17°C° 0 mm 3 mps 753 mmHg 73%
    22:00 +17°C° 0 mm 3 mps 753 mmHg 74%
    23:00 +16°C° 0 mm 2 mps 753 mmHg 75%
    Show more